AXY294 UMMS-SUMU

Flight info

Callsign AXY294
Flight time N/A
Altitude 32000
Route OSMUS2F OSMUS M984 LETKI/N0481F320 Z176 SKARY DCT MIKOV DCT LIMRA DCT DETSA/N0479F330 DCT NEVNI DCT BORDI DCT PADKO UM984 DIVKO G7 MAMES M984 BISBA DCT RODRA M985 SOPET/N0474F350 M985 MGA N851 VJF L82 RUNAX UL82 IBALU UN857 TERTO N857 LZR/N0474F370 N857 DEREV/N0479F360 N857 GUNET/N0477F380 UN857 ERETU/N0470F400 UN857 MIMOL UM792 TELAK
Aircraft A343/H-SDE2E3FGHIJ4J5M1RWXY/LB1D1

Departure

Time 2026-04-28 23:48
Airport Minsk National Airport (UMMS)

Arrival

Time N/A
Airport Carrasco General Cesáreo L. Berisso International Airport (SUMU)
Time Latitude Longitude Altitude Speed Heading
2026-04-28 23:01 53.88311 28.04448 667 ft 0 kts 48°
2026-04-28 23:13 53.88300 28.04431 666 ft 3 kts 31°
2026-04-28 23:13 53.88282 28.04417 665 ft 2 kts
2026-04-28 23:14 53.88262 28.04414 663 ft 3 kts 341°
2026-04-28 23:14 53.88244 28.04425 665 ft 3 kts 345°
2026-04-28 23:14 53.88238 28.04427 665 ft 0 kts 338°
2026-04-28 23:37 53.88284 28.04379 667 ft 31 kts 328°
2026-04-28 23:37 53.88646 28.03997 664 ft 89 kts 328°
2026-04-28 23:38 53.89018 28.03619 660 ft 0 kts 331°
2026-04-28 23:39 53.89005 28.03630 660 ft 3 kts
2026-04-28 23:39 53.88994 28.03629 659 ft 3 kts
2026-04-28 23:39 53.88975 28.03632 656 ft 3 kts 321°
2026-04-28 23:39 53.88963 28.03656 659 ft 3 kts 278°
2026-04-28 23:40 53.88964 28.03688 660 ft 3 kts 235°
2026-04-28 23:40 53.88976 28.03711 659 ft 2 kts 212°
2026-04-28 23:40 53.88990 28.03725 658 ft 2 kts 212°
2026-04-28 23:40 53.88995 28.03731 658 ft 0 kts 212°
2026-04-28 23:41 53.88969 28.03703 658 ft 24 kts 212°
2026-04-28 23:41 53.88646 28.03362 661 ft 84 kts 207°
2026-04-28 23:41 53.88014 28.02835 665 ft 0 kts 207°
2026-04-28 23:42 53.88022 28.02841 664 ft 3 kts 218°
2026-04-28 23:42 53.88034 28.02864 664 ft 3 kts 260°
2026-04-28 23:42 53.88035 28.02883 663 ft 2 kts 276°
2026-04-28 23:42 53.88034 28.02908 662 ft 2 kts 276°
2026-04-28 23:43 53.88032 28.02935 661 ft 2 kts 276°
2026-04-28 23:43 53.88031 28.02962 661 ft 3 kts 276°
2026-04-28 23:43 53.88028 28.02989 662 ft 1 kts 259°
2026-04-28 23:43 53.88032 28.03016 664 ft 2 kts 256°
2026-04-28 23:44 53.88035 28.03042 664 ft 2 kts 256°
2026-04-28 23:44 53.88038 28.03057 663 ft 1 kts 256°
2026-04-28 23:44 53.88041 28.03078 664 ft 2 kts 256°
2026-04-28 23:44 53.88044 28.03101 665 ft 2 kts 256°
2026-04-28 23:45 53.88048 28.03129 662 ft 2 kts 256°
2026-04-28 23:45 53.88052 28.03156 665 ft 2 kts 256°
2026-04-28 23:45 53.88056 28.03182 664 ft 2 kts 256°
2026-04-28 23:45 53.88060 28.03209 664 ft 1 kts 256°
2026-04-28 23:46 53.88064 28.03235 662 ft 2 kts 247°
2026-04-28 23:46 53.88071 28.03262 662 ft 3 kts 261°
2026-04-28 23:46 53.88073 28.03292 663 ft 3 kts 278°
2026-04-28 23:46 53.88070 28.03323 661 ft 3 kts 302°
2026-04-28 23:47 53.88059 28.03346 661 ft 2 kts 319°
2026-04-28 23:47 53.88050 28.03359 662 ft 0 kts 319°
2026-04-28 23:47 53.88082 28.03312 662 ft 28 kts 319°
2026-04-28 23:47 53.88396 28.02847 659 ft 90 kts 319°
2026-04-28 23:48 53.88991 28.01966 655 ft 140 kts 319°
2026-04-28 23:48 53.89837 28.00729 734 ft 174 kts 319°
2026-04-28 23:48 53.90800 27.99545 1434 ft 166 kts 341°
2026-04-28 23:48 53.91870 27.99377 2392 ft 149 kts
2026-04-28 23:49 53.92972 27.99101 2606 ft 173 kts 338°
2026-04-28 23:49 53.93997 27.97846 2813 ft 196 kts 317°
2026-04-28 23:49 53.95040 27.96214 3035 ft 215 kts 321°
2026-04-28 23:49 53.96168 27.94424 3390 ft 231 kts 317°
2026-04-28 23:50 53.97338 27.92437 3889 ft 241 kts 316°
2026-04-28 23:50 53.98539 27.90357 4441 ft 250 kts 316°
2026-04-28 23:50 53.99767 27.88215 5041 ft 256 kts 315°
2026-04-28 23:50 54.01003 27.86048 5696 ft 258 kts 315°
2026-04-28 23:51 54.02263 27.83835 6397 ft 261 kts 315°
2026-04-28 23:51 54.03538 27.81592 7044 ft 264 kts 315°
2026-04-28 23:51 54.04808 27.79356 7655 ft 267 kts 314°
2026-04-28 23:51 54.06109 27.77063 8302 ft 269 kts 314°
2026-04-28 23:52 54.07338 27.74638 8917 ft 273 kts 303°
2026-04-28 23:52 54.08025 27.71657 9483 ft 278 kts 278°
2026-04-28 23:52 54.07893 27.68364 10068 ft 283 kts 257°
2026-04-28 23:52 54.07323 27.65111 10478 ft 292 kts 253°
2026-04-28 23:53 54.06676 27.61771 10735 ft 305 kts 253°
2026-04-28 23:53 54.05996 27.58256 10972 ft 318 kts 253°
2026-04-28 23:53 54.05305 27.54644 11213 ft 330 kts 253°
2026-04-28 23:53 54.04579 27.50818 11488 ft 341 kts 253°
2026-04-28 23:54 54.03839 27.46913 11778 ft 351 kts 253°
2026-04-28 23:54 54.03091 27.42967 12211 ft 357 kts 254°
2026-04-28 23:54 54.02326 27.38927 12686 ft 361 kts 254°
2026-04-28 23:54 54.01544 27.34807 13166 ft 366 kts 254°
2026-04-28 23:55 54.00753 27.30652 13684 ft 370 kts 254°
2026-04-28 23:55 53.99967 27.26522 14162 ft 374 kts 254°
2026-04-28 23:55 53.99158 27.22284 14586 ft 378 kts 254°
2026-04-28 23:55 53.98332 27.17969 15011 ft 383 kts 254°
2026-04-28 23:56 53.97518 27.13723 15500 ft 385 kts 254°
2026-04-28 23:56 53.96681 27.09365 15957 ft 388 kts 253°
2026-04-28 23:56 53.95837 27.04985 16409 ft 392 kts 253°
2026-04-28 23:56 53.95272 27.02054 16710 ft 394 kts 253°
2026-04-28 23:57 53.94414 26.97614 17160 ft 397 kts 253°
2026-04-28 23:57 53.93547 26.93137 17611 ft 400 kts 253°
2026-04-28 23:57 53.92673 26.88618 18056 ft 404 kts 253°
2026-04-28 23:57 53.91798 26.84127 18495 ft 407 kts 253°
2026-04-28 23:58 53.90896 26.79512 18891 ft 410 kts 252°
2026-04-28 23:58 53.89932 26.74964 19261 ft 414 kts 248°
2026-04-28 23:58 53.88590 26.70640 19671 ft 417 kts 237°
2026-04-28 23:58 53.86892 26.66617 20069 ft 419 kts 232°
2026-04-28 23:59 53.85079 26.62826 20721 ft 401 kts 230°
2026-04-28 23:59 53.83332 26.59313 21380 ft 384 kts 232°
2026-04-28 23:59 53.81674 26.55883 21675 ft 375 kts 233°
2026-04-28 23:59 53.80042 26.52462 21926 ft 368 kts 233°
2026-04-29 00:00 53.78450 26.49126 21998 ft 362 kts 233°
2026-04-29 00:00 53.76895 26.45786 21815 ft 361 kts 237°
2026-04-29 00:00 53.75589 26.42132 21482 ft 362 kts 239°
2026-04-29 00:00 53.74125 26.38757 21389 ft 358 kts 231°
2026-04-29 00:01 53.72467 26.35627 21290 ft 354 kts 229°
2026-04-29 00:01 53.70815 26.32577 20991 ft 351 kts 234°
2026-04-29 00:01 53.69524 26.29016 20019 ft 363 kts 244°
2026-04-29 00:01 53.68413 26.25627 16992 ft 251 kts 226°
2026-04-29 00:02 53.66951 26.22304 7796 ft 476 kts 245°
2026-04-29 00:02 53.65264 26.17093 3539 ft 525 kts 244°
2026-04-29 00:02 53.64419 26.12003 6989 ft 407 kts 269°
2026-04-29 00:02 53.64444 26.07481 7212 ft 382 kts 276°
2026-04-29 00:03 53.64641 26.02968 4194 ft 392 kts 276°
2026-04-29 00:03 53.63730 25.98604 1495 ft 400 kts 228°
2026-04-29 00:03 53.62136 25.95285 1022 ft 330 kts 236°
2026-04-29 00:03 53.60724 25.92752 1028 ft 268 kts 220°
2026-04-29 00:04 53.59444 25.91170 1474 ft 202 kts 209°
2026-04-29 00:04 53.58248 25.90213 1103 ft 181 kts 227°
2026-04-29 00:04 53.57663 25.89107 870 ft 19 kts 200°
2026-04-29 00:04 53.57595 25.89065 877 ft 3 kts 200°